Time,TemperatureF,DewpointF,PressureIn,WindDirection,WindDirectionDegrees,WindSpeedMPH,WindSpeedGustMPH,Humidity,HourlyPrecipIn,Conditions,Clouds,dailyrainin,SolarRadiationWatts/m^2,SoftwareType,DateUTC
2013-03-11 00:00:00,18.1,14.9,30.08,WNW,286,2.0,8.0,87,0.00,,,0.00,0.0,meteohub,2013-03-11 05:00:00,
2013-03-11 00:05:00,18.0,14.7,30.08,WNW,290,2.0,10.0,87,0.00,,,0.00,0.0,meteohub,2013-03-11 05:05:00,
2013-03-11 00:10:00,18.0,14.7,30.08,West,275,3.0,10.0,87,0.00,,,0.00,0.0,meteohub,2013-03-11 05:10:00,
2013-03-11 00:15:00,18.0,14.7,30.08,NW,313,2.0,7.0,87,0.00,,,0.00,0.0,meteohub,2013-03-11 05:15:00,
2013-03-11 00:20:00,17.8,14.5,30.08,NNW,333,1.0,7.0,87,0.00,,,0.00,0.0,meteohub,2013-03-11 05:20:00,
2013-03-11 00:25:00,17.8,14.4,30.08,NNW,348,4.0,8.0,86,0.00,,,0.00,0.0,meteohub,2013-03-11 05:25:00,
2013-03-11 00:30:00,17.4,14.0,30.07,WNW,302,1.0,8.0,86,0.00,,,0.00,0.0,meteohub,2013-03-11 05:30:00,
2013-03-11 00:35:00,17.4,14.0,30.07,NW,325,2.0,8.0,86,0.00,,,0.00,0.0,meteohub,2013-03-11 05:35:00,
2013-03-11 00:40:00,17.2,13.8,30.07,NNW,342,2.0,7.0,86,0.00,,,0.00,0.0,meteohub,2013-03-11 05:40:00,
2013-03-11 00:45:00,17.1,13.6,30.07,NNE,32,4.0,7.0,86,0.00,,,0.00,0.0,meteohub,2013-03-11 05:45:00,
2013-03-11 00:50:00,17.1,13.6,30.07,NW,322,0.0,7.0,86,0.00,,,0.00,0.0,meteohub,2013-03-11 05:50:00,
2013-03-11 00:55:00,17.1,13.6,30.07,WSW,254,2.0,6.0,86,0.00,,,0.00,0.0,meteohub,2013-03-11 05:55:00,
2013-03-11 01:00:00,16.9,13.5,30.07,WNW,282,3.0,6.0,86,0.00,,,0.00,0.0,meteohub,2013-03-11 06:00:00,
2013-03-11 01:05:00,16.7,13.3,30.07,WNW,302,0.0,6.0,86,0.00,,,0.00,0.0,meteohub,2013-03-11 06:05:00,
2013-03-11 01:10:00,16.5,13.1,30.07,NNW,328,2.0,7.0,86,0.00,,,0.00,0.0,meteohub,2013-03-11 06:10:00,
2013-03-11 01:15:00,16.5,13.1,30.06,NNW,342,0.0,7.0,86,0.00,,,0.00,0.0,meteohub,2013-03-11 06:15:00,
2013-03-11 01:20:00,16.3,12.9,30.06,NW,323,3.0,7.0,86,0.00,,,0.00,0.0,meteohub,2013-03-11 06:20:00,
2013-03-11 01:25:00,16.3,12.9,30.06,WSW,254,2.0,7.0,86,0.00,,,0.00,0.0,meteohub,2013-03-11 06:25:00,
2013-03-11 01:31:00,16.2,12.7,30.06,North,9,2.0,8.0,86,0.00,,,0.00,0.0,meteohub,2013-03-11 06:31:00,
2013-03-11 01:36:00,16.2,12.7,30.05,West,279,3.0,8.0,86,0.00,,,0.00,0.0,meteohub,2013-03-11 06:36:00,
2013-03-11 01:41:00,16.0,12.6,30.05,NW,324,0.0,8.0,86,0.00,,,0.00,0.0,meteohub,2013-03-11 06:41:00,
2013-03-11 01:46:00,16.0,12.6,30.05,NNE,13,3.0,6.0,86,0.00,,,0.00,0.0,meteohub,2013-03-11 06:46:00,
2013-03-11 01:51:00,16.2,12.7,30.04,NNW,335,2.0,6.0,86,0.00,,,0.00,0.0,meteohub,2013-03-11 06:51:00,
2013-03-11 01:56:00,16.2,12.7,30.04,NW,325,4.0,6.0,86,0.00,,,0.00,0.0,meteohub,2013-03-11 06:56:00,
2013-03-11 02:01:00,16.2,12.7,30.04,North,350,3.0,7.0,86,0.00,,,0.00,0.0,meteohub,2013-03-11 07:01:00,
2013-03-11 02:06:00,16.3,12.9,30.04,West,272,0.0,7.0,86,0.00,,,0.00,0.0,meteohub,2013-03-11 07:06:00,
2013-03-11 02:11:00,16.3,12.9,30.04,NW,309,6.0,7.0,86,0.00,,,0.00,0.0,meteohub,2013-03-11 07:11:00,
2013-03-11 02:16:00,16.3,12.9,30.04,West,261,3.0,7.0,86,0.00,,,0.00,0.0,meteohub,2013-03-11 07:16:00,
2013-03-11 02:21:00,16.5,13.1,30.04,NNW,334,4.0,6.0,86,0.00,,,0.00,0.0,meteohub,2013-03-11 07:21:00,
2013-03-11 02:27:00,16.5,13.1,30.04,NNW,346,1.0,6.0,86,0.00,,,0.00,0.0,meteohub,2013-03-11 07:27:00,
2013-03-11 02:32:00,16.5,13.1,30.04,West,281,1.0,6.0,86,0.00,,,0.00,0.0,meteohub,2013-03-11 07:32:00,
2013-03-11 02:37:00,16.5,13.1,30.04,North,355,0.0,6.0,86,0.00,,,0.00,0.0,meteohub,2013-03-11 07:37:00,
2013-03-11 02:42:00,16.5,13.1,30.05,West,268,1.0,6.0,86,0.00,,,0.00,0.0,meteohub,2013-03-11 07:42:00,
2013-03-11 02:47:00,16.5,13.1,30.05,NW,311,0.0,5.0,86,0.00,,,0.00,0.0,meteohub,2013-03-11 07:47:00,
2013-03-11 02:52:00,16.3,12.6,30.05,NNW,343,1.0,6.0,85,0.00,,,0.00,0.0,meteohub,2013-03-11 07:52:00,
2013-03-11 02:57:00,16.2,12.4,30.05,WNW,298,1.0,6.0,85,0.00,,,0.00,0.0,meteohub,2013-03-11 07:57:00,
2013-03-11 03:02:00,16.2,12.4,30.04,North,5,1.0,6.0,85,0.00,,,0.00,0.0,meteohub,2013-03-11 08:02:00,
2013-03-11 03:07:00,16.0,12.2,30.04,WNW,292,2.0,5.0,85,0.00,,,0.00,0.0,meteohub,2013-03-11 08:07:00,
2013-03-11 03:12:00,16.0,12.6,30.04,NW,309,1.0,5.0,86,0.00,,,0.00,0.0,meteohub,2013-03-11 08:12:00,
2013-03-11 03:17:00,16.0,12.6,30.04,NW,325,2.0,5.0,86,0.00,,,0.00,0.0,meteohub,2013-03-11 08:17:00,
2013-03-11 03:22:00,16.0,12.6,30.04,West,271,3.0,6.0,86,0.00,,,0.00,0.0,meteohub,2013-03-11 08:22:00,
2013-03-11 03:27:00,16.2,12.7,30.04,West,268,3.0,6.0,86,0.00,,,0.00,0.0,meteohub,2013-03-11 08:27:00,
2013-03-11 03:32:00,16.2,12.7,30.04,NW,326,0.0,6.0,86,0.00,,,0.00,0.0,meteohub,2013-03-11 08:32:00,
2013-03-11 03:37:00,16.2,12.7,30.03,West,271,1.0,4.0,86,0.00,,,0.00,0.0,meteohub,2013-03-11 08:37:00,
2013-03-11 03:42:00,16.2,12.7,30.03,NNW,327,0.0,4.0,86,0.00,,,0.00,0.0,meteohub,2013-03-11 08:42:00,
2013-03-11 03:47:00,16.2,12.7,30.03,WNW,294,2.0,4.0,86,0.00,,,0.00,0.0,meteohub,2013-03-11 08:47:00,
2013-03-11 03:52:00,16.2,12.7,30.02,NW,324,1.0,5.0,86,0.00,,,0.00,0.0,meteohub,2013-03-11 08:52:00,
2013-03-11 03:57:00,16.2,12.7,30.02,North,11,1.0,5.0,86,0.00,,,0.00,0.0,meteohub,2013-03-11 08:57:00,
2013-03-11 04:02:00,16.0,12.6,30.02,NW,321,2.0,5.0,86,0.00,,,0.00,0.0,meteohub,2013-03-11 09:02:00,
2013-03-11 04:07:00,16.0,12.6,30.01,WNW,282,2.0,5.0,86,0.00,,,0.00,0.0,meteohub,2013-03-11 09:07:00,
2013-03-11 04:12:00,15.8,12.0,30.01,West,259,4.0,5.0,85,0.00,,,0.00,0.0,meteohub,2013-03-11 09:12:00,
2013-03-11 04:17:00,15.6,11.8,30.01,WNW,300,0.0,5.0,85,0.00,,,0.00,0.0,meteohub,2013-03-11 09:17:00,
2013-03-11 04:22:00,15.6,11.8,30.01,WNW,283,1.0,5.0,85,0.00,,,0.00,0.0,meteohub,2013-03-11 09:22:00,
2013-03-11 04:27:00,15.4,11.7,30.01,WSW,239,0.0,5.0,85,0.00,,,0.00,0.0,meteohub,2013-03-11 09:27:00,
2013-03-11 04:32:00,15.4,11.7,30.01,WNW,302,0.0,5.0,85,0.00,,,0.00,0.0,meteohub,2013-03-11 09:32:00,
2013-03-11 04:37:00,15.3,11.8,30.01,WNW,288,2.0,5.0,86,0.00,,,0.00,0.0,meteohub,2013-03-11 09:37:00,
2013-03-11 04:43:00,15.3,11.5,30.01,West,263,2.0,5.0,85,0.00,,,0.00,0.0,meteohub,2013-03-11 09:43:00,
2013-03-11 04:48:00,15.3,11.5,30.01,WSW,242,3.0,6.0,85,0.00,,,0.00,0.0,meteohub,2013-03-11 09:48:00,
2013-03-11 04:53:00,15.1,11.5,30.01,NNW,346,1.0,6.0,85,0.00,,,0.00,0.0,meteohub,2013-03-11 09:53:00,
2013-03-11 04:58:00,15.1,11.5,30.01,NW,321,2.0,6.0,85,0.00,,,0.00,0.0,meteohub,2013-03-11 09:58:00,
2013-03-11 05:03:00,14.9,11.3,30.01,WSW,257,3.0,5.0,85,0.00,,,0.00,0.0,meteohub,2013-03-11 10:03:00,
2013-03-11 05:08:00,14.9,11.5,30.00,West,273,5.0,5.0,86,0.00,,,0.00,0.0,meteohub,2013-03-11 10:08:00,
2013-03-11 05:13:00,14.7,11.1,30.00,WNW,284,2.0,7.0,85,0.00,,,0.00,0.0,meteohub,2013-03-11 10:13:00,
2013-03-11 05:18:00,14.5,10.9,30.00,West,277,3.0,7.0,85,0.00,,,0.00,0.0,meteohub,2013-03-11 10:18:00,
2013-03-11 05:23:00,14.4,10.8,30.00,WSW,254,1.0,8.0,85,0.00,,,0.00,0.0,meteohub,2013-03-11 10:23:00,
2013-03-11 05:28:00,14.2,10.6,30.00,West,263,4.0,8.0,85,0.00,,,0.00,0.0,meteohub,2013-03-11 10:28:00,
2013-03-11 05:33:00,14.0,10.4,30.00,West,276,4.0,8.0,85,0.00,,,0.00,0.0,meteohub,2013-03-11 10:33:00,
2013-03-11 05:38:00,13.8,10.2,30.00,West,272,2.0,6.0,85,0.00,,,0.00,0.0,meteohub,2013-03-11 10:38:00,
2013-03-11 05:43:00,13.6,10.0,30.00,WNW,282,3.0,6.0,85,0.00,,,0.00,0.0,meteohub,2013-03-11 10:43:00,
2013-03-11 05:48:00,13.6,10.0,30.00,West,279,2.0,5.0,85,0.00,,,0.00,0.0,meteohub,2013-03-11 10:48:00,
2013-03-11 05:53:00,13.5,9.9,30.00,West,276,5.0,5.0,85,0.00,,,0.00,0.0,meteohub,2013-03-11 10:53:00,
2013-03-11 05:58:00,13.3,9.7,30.00,West,266,4.0,7.0,85,0.00,,,0.00,0.0,meteohub,2013-03-11 10:58:00,
2013-03-11 06:03:00,13.3,9.7,30.00,West,273,2.0,9.0,85,0.00,,,0.00,0.0,meteohub,2013-03-11 11:03:00,
2013-03-11 06:08:00,12.9,9.3,30.00,West,277,4.0,9.0,85,0.00,,,0.00,0.0,meteohub,2013-03-11 11:08:00,
2013-03-11 06:13:00,12.9,9.5,30.00,West,279,2.0,9.0,86,0.00,,,0.00,0.0,meteohub,2013-03-11 11:13:00,
2013-03-11 06:18:00,12.9,9.5,29.99,West,269,3.0,6.0,86,0.00,,,0.00,0.0,meteohub,2013-03-11 11:18:00,
2013-03-11 06:23:00,12.7,9.3,29.99,NNW,344,0.0,6.0,86,0.00,,,0.00,0.0,meteohub,2013-03-11 11:23:00,
2013-03-11 06:28:00,12.7,9.3,29.99,West,273,2.0,4.0,86,0.00,,,0.00,0.0,meteohub,2013-03-11 11:28:00,
2013-03-11 06:33:00,12.9,9.5,29.99,West,271,0.0,4.0,86,0.00,,,0.00,0.0,meteohub,2013-03-11 11:33:00,
2013-03-11 06:38:00,12.9,9.5,29.99,WSW,254,4.0,4.0,86,0.00,,,0.00,0.0,meteohub,2013-03-11 11:38:00,
2013-03-11 06:43:00,12.9,9.5,29.99,West,280,2.0,6.0,86,0.00,,,0.00,0.0,meteohub,2013-03-11 11:43:00,
2013-03-11 06:48:00,12.9,9.5,29.99,NNW,347,1.0,6.0,86,0.00,,,0.00,0.0,meteohub,2013-03-11 11:48:00,
2013-03-11 06:53:00,12.9,9.3,29.99,West,262,5.0,7.0,85,0.00,,,0.00,0.0,meteohub,2013-03-11 11:53:00,
2013-03-11 06:58:00,12.7,8.8,29.99,West,265,7.0,7.0,84,0.00,,,0.00,0.0,meteohub,2013-03-11 11:58:00,
2013-03-11 07:03:00,12.2,8.2,30.00,WSW,254,4.0,7.0,84,0.00,,,0.00,0.0,meteohub,2013-03-11 12:03:00,
2013-03-11 07:08:00,11.8,7.9,30.00,West,277,2.0,7.0,84,0.00,,,0.00,0.0,meteohub,2013-03-11 12:08:00,
2013-03-11 07:13:00,11.7,7.7,29.99,WNW,282,2.0,7.0,84,0.00,,,0.00,0.0,meteohub,2013-03-11 12:13:00,
2013-03-11 07:18:00,11.5,7.9,29.99,NNW,335,0.0,7.0,85,0.00,,,0.00,0.0,meteohub,2013-03-11 12:18:00,
2013-03-11 07:23:00,11.3,7.3,29.99,NNW,331,1.0,5.0,84,0.00,,,0.00,0.0,meteohub,2013-03-11 12:23:00,
2013-03-11 07:28:00,11.1,7.2,30.00,WNW,289,2.0,5.0,84,0.00,,,0.00,0.0,meteohub,2013-03-11 12:28:00,
2013-03-11 07:33:00,10.9,7.0,30.00,West,265,3.0,7.0,84,0.00,,,0.00,0.0,meteohub,2013-03-11 12:33:00,
2013-03-11 07:39:00,10.8,6.6,29.99,West,276,3.0,7.0,83,0.00,,,0.00,0.0,meteohub,2013-03-11 12:39:00,
2013-03-11 07:44:00,10.0,5.9,30.00,West,276,5.0,7.0,83,0.00,,,0.00,0.0,meteohub,2013-03-11 12:44:00,
2013-03-11 07:49:00,9.5,5.4,30.00,West,260,4.0,6.0,83,0.00,,,0.00,5.0,meteohub,2013-03-11 12:49:00,
2013-03-11 07:54:00,9.0,4.8,30.00,West,278,2.0,6.0,83,0.00,,,0.00,7.0,meteohub,2013-03-11 12:54:00,
2013-03-11 07:59:00,8.8,5.0,30.00,West,262,4.0,6.0,84,0.00,,,0.00,11.0,meteohub,2013-03-11 12:59:00,
2013-03-11 08:04:00,8.2,4.5,30.00,West,274,3.0,6.0,84,0.00,,,0.00,14.0,meteohub,2013-03-11 13:04:00,
2013-03-11 08:09:00,7.9,4.1,30.00,WSW,248,3.0,5.0,84,0.00,,,0.00,16.0,meteohub,2013-03-11 13:09:00,
2013-03-11 08:14:00,7.5,3.7,30.01,West,265,4.0,5.0,84,0.00,,,0.00,18.0,meteohub,2013-03-11 13:14:00,
2013-03-11 08:19:00,7.3,3.6,30.00,West,277,3.0,5.0,84,0.00,,,0.00,19.0,meteohub,2013-03-11 13:19:00,
2013-03-11 08:24:00,7.2,3.6,30.00,West,275,2.0,6.0,85,0.00,,,0.00,21.0,meteohub,2013-03-11 13:24:00,
2013-03-11 08:29:00,7.0,3.4,30.00,West,269,5.0,6.0,85,0.00,,,0.00,25.0,meteohub,2013-03-11 13:29:00,
2013-03-11 08:34:00,6.8,3.2,30.00,West,281,3.0,6.0,85,0.00,,,0.00,26.0,meteohub,2013-03-11 13:34:00,
2013-03-11 08:39:00,6.6,3.0,30.00,NNW,343,2.0,6.0,85,0.00,,,0.00,28.0,meteohub,2013-03-11 13:39:00,
2013-03-11 08:44:00,6.6,3.4,30.00,West,272,4.0,6.0,86,0.00,,,0.00,32.0,meteohub,2013-03-11 13:44:00,
2013-03-11 08:49:00,6.6,3.0,30.00,West,265,4.0,6.0,85,0.00,,,0.00,33.0,meteohub,2013-03-11 13:49:00,
2013-03-11 08:54:00,6.6,3.4,30.00,West,265,4.0,7.0,86,0.00,,,0.00,35.0,meteohub,2013-03-11 13:54:00,
2013-03-11 08:59:00,6.8,3.6,30.00,West,273,3.0,7.0,86,0.00,,,0.00,37.0,meteohub,2013-03-11 13:59:00,
2013-03-11 09:04:00,7.0,3.7,30.00,West,273,2.0,7.0,86,0.00,,,0.00,39.0,meteohub,2013-03-11 14:04:00,
2013-03-11 09:09:00,7.0,3.7,30.00,WSW,257,4.0,7.0,86,0.00,,,0.00,37.0,meteohub,2013-03-11 14:09:00,
2013-03-11 09:14:00,7.2,3.9,30.00,West,278,4.0,8.0,86,0.00,,,0.00,39.0,meteohub,2013-03-11 14:14:00,
2013-03-11 09:19:00,7.2,3.9,30.00,WSW,250,3.0,8.0,86,0.00,,,0.00,44.0,meteohub,2013-03-11 14:19:00,
2013-03-11 09:24:00,7.3,4.1,30.00,West,269,2.0,6.0,86,0.00,,,0.00,42.0,meteohub,2013-03-11 14:24:00,
2013-03-11 09:29:00,7.5,4.3,30.00,West,269,7.0,7.0,86,0.00,,,0.00,46.0,meteohub,2013-03-11 14:29:00,
2013-03-11 09:34:00,7.7,4.5,30.00,West,270,2.0,7.0,86,0.00,,,0.00,63.0,meteohub,2013-03-11 14:34:00,
2013-03-11 09:39:00,8.2,4.6,29.99,West,262,2.0,7.0,85,0.00,,,0.00,83.0,meteohub,2013-03-11 14:39:00,
2013-03-11 09:44:00,8.4,4.8,29.99,West,262,3.0,7.0,85,0.00,,,0.00,69.0,meteohub,2013-03-11 14:44:00,
2013-03-11 09:49:00,8.8,5.0,29.99,WSW,253,4.0,6.0,84,0.00,,,0.00,104.0,meteohub,2013-03-11 14:49:00,
2013-03-11 09:54:00,9.1,5.4,29.99,West,273,3.0,6.0,84,0.00,,,0.00,135.0,meteohub,2013-03-11 14:54:00,
2013-03-11 09:59:00,9.5,5.7,29.99,West,261,5.0,6.0,84,0.00,,,0.00,137.0,meteohub,2013-03-11 14:59:00,
2013-03-11 10:04:00,9.9,5.7,29.99,West,276,3.0,7.0,83,0.00,,,0.00,137.0,meteohub,2013-03-11 15:04:00,
2013-03-11 10:09:00,9.9,5.7,29.99,WSW,255,2.0,7.0,83,0.00,,,0.00,188.0,meteohub,2013-03-11 15:09:00,
2013-03-11 10:14:00,10.2,6.1,29.99,West,268,4.0,7.0,83,0.00,,,0.00,227.0,meteohub,2013-03-11 15:14:00,
2013-03-11 10:19:00,10.8,6.6,29.99,West,274,2.0,6.0,83,0.00,,,0.00,241.0,meteohub,2013-03-11 15:19:00,
2013-03-11 10:24:00,11.1,7.0,29.99,WNW,284,2.0,6.0,83,0.00,,,0.00,322.0,meteohub,2013-03-11 15:24:00,
2013-03-11 10:29:00,11.1,6.6,29.99,WNW,294,2.0,5.0,82,0.00,,,0.00,387.0,meteohub,2013-03-11 15:29:00,
2013-03-11 10:34:00,11.7,7.2,29.99,West,276,3.0,5.0,82,0.00,,,0.00,287.0,meteohub,2013-03-11 15:34:00,
2013-03-11 10:39:00,12.0,7.5,29.99,WNW,284,2.0,5.0,82,0.00,,,0.00,308.0,meteohub,2013-03-11 15:39:00,
2013-03-11 10:44:00,12.6,8.1,29.99,WSW,254,1.0,5.0,82,0.00,,,0.00,322.0,meteohub,2013-03-11 15:44:00,
2013-03-11 10:49:00,12.7,8.2,29.99,West,261,3.0,6.0,82,0.00,,,0.00,306.0,meteohub,2013-03-11 15:49:00,
2013-03-11 10:55:00,12.9,8.2,29.99,West,266,4.0,6.0,81,0.00,,,0.00,302.0,meteohub,2013-03-11 15:55:00,
2013-03-11 11:00:00,12.9,8.2,29.99,West,275,3.0,6.0,81,0.00,,,0.00,320.0,meteohub,2013-03-11 16:00:00,
2013-03-11 11:05:00,13.8,9.3,29.98,West,281,5.0,7.0,82,0.00,,,0.00,320.0,meteohub,2013-03-11 16:05:00,
2013-03-11 11:10:00,14.0,9.3,29.98,West,261,4.0,8.0,81,0.00,,,0.00,329.0,meteohub,2013-03-11 16:10:00,
2013-03-11 11:15:00,14.4,9.7,29.98,West,275,2.0,8.0,81,0.00,,,0.00,348.0,meteohub,2013-03-11 16:15:00,
2013-03-11 11:20:00,14.7,10.0,29.98,West,269,5.0,7.0,81,0.00,,,0.00,334.0,meteohub,2013-03-11 16:20:00,
2013-03-11 11:21:00,14.5,9.5,29.98,WSW,251,4.0,7.0,80,0.00,,,0.00,327.0,meteohub,2013-03-11 16:21:00,
2013-03-11 11:27:00,14.5,9.9,29.98,West,281,3.0,8.0,81,0.00,,,0.00,338.0,meteohub,2013-03-11 16:27:00,
2013-03-11 11:36:00,14.9,10.2,29.98,West,268,5.0,8.0,81,0.00,,,0.00,367.0,meteohub,2013-03-11 16:36:00,
2013-03-11 11:41:00,14.9,10.2,29.98,West,259,4.0,7.0,81,0.00,,,0.00,371.0,meteohub,2013-03-11 16:41:00,
2013-03-11 11:46:00,15.1,10.0,29.98,West,279,5.0,7.0,80,0.00,,,0.00,380.0,meteohub,2013-03-11 16:46:00,
2013-03-11 11:51:00,15.4,10.6,29.98,West,281,2.0,9.0,81,0.00,,,0.00,401.0,meteohub,2013-03-11 16:51:00,
2013-03-11 11:56:00,16.0,10.9,29.97,West,260,2.0,9.0,80,0.00,,,0.00,415.0,meteohub,2013-03-11 16:56:00,
2013-03-11 12:01:00,16.2,11.1,29.97,WNW,284,2.0,7.0,80,0.00,,,0.00,392.0,meteohub,2013-03-11 17:01:00,
2013-03-11 12:06:00,16.9,11.8,29.97,West,271,4.0,6.0,80,0.00,,,0.00,371.0,meteohub,2013-03-11 17:06:00,
2013-03-11 12:11:00,17.2,12.2,29.97,West,273,2.0,6.0,80,0.00,,,0.00,350.0,meteohub,2013-03-11 17:11:00,
2013-03-11 12:17:00,17.6,12.2,29.97,WNW,283,2.0,5.0,79,0.00,,,0.00,352.0,meteohub,2013-03-11 17:17:00,
2013-03-11 12:22:00,18.7,13.3,29.96,WNW,282,2.0,5.0,79,0.00,,,0.00,366.0,meteohub,2013-03-11 17:22:00,
2013-03-11 12:27:00,19.4,13.5,29.96,North,355,3.0,6.0,77,0.00,,,0.00,411.0,meteohub,2013-03-11 17:27:00,
2013-03-11 12:32:00,19.6,13.3,29.96,NW,322,2.0,6.0,76,0.00,,,0.00,385.0,meteohub,2013-03-11 17:32:00,
2013-03-11 12:37:00,19.2,12.9,29.96,WNW,301,2.0,6.0,76,0.00,,,0.00,392.0,meteohub,2013-03-11 17:37:00,
2013-03-11 12:42:00,19.8,13.6,29.96,North,349,2.0,6.0,77,0.00,,,0.00,406.0,meteohub,2013-03-11 17:42:00,
2013-03-11 12:47:00,20.1,14.0,29.96,North,349,1.0,6.0,77,0.00,,,0.00,406.0,meteohub,2013-03-11 17:47:00,
2013-03-11 12:52:00,20.5,14.2,29.96,West,260,3.0,5.0,76,0.00,,,0.00,413.0,meteohub,2013-03-11 17:52:00,
2013-03-11 12:57:00,20.7,14.5,29.96,West,263,4.0,7.0,77,0.00,,,0.00,415.0,meteohub,2013-03-11 17:57:00,
2013-03-11 13:02:00,20.8,14.7,29.96,WSW,257,3.0,7.0,77,0.00,,,0.00,425.0,meteohub,2013-03-11 18:02:00,
2013-03-11 13:07:00,21.0,14.7,29.96,NNE,15,1.0,5.0,76,0.00,,,0.00,413.0,meteohub,2013-03-11 18:07:00,
2013-03-11 13:12:00,21.4,15.3,29.96,West,281,4.0,5.0,77,0.00,,,0.00,388.0,meteohub,2013-03-11 18:12:00,
2013-03-11 13:17:00,20.7,14.0,29.95,West,270,5.0,7.0,75,0.00,,,0.00,410.0,meteohub,2013-03-11 18:17:00,
2013-03-11 13:22:00,20.3,14.0,29.95,WNW,282,2.0,7.0,76,0.00,,,0.00,401.0,meteohub,2013-03-11 18:22:00,
2013-03-11 13:27:00,20.7,14.5,29.95,WSW,251,2.0,7.0,77,0.00,,,0.00,408.0,meteohub,2013-03-11 18:27:00,
2013-03-11 13:32:00,20.5,14.2,29.95,West,263,4.0,7.0,76,0.00,,,0.00,406.0,meteohub,2013-03-11 18:32:00,
2013-03-11 13:37:00,20.5,14.4,29.95,WSW,248,2.0,7.0,77,0.00,,,0.00,394.0,meteohub,2013-03-11 18:37:00,
2013-03-11 13:42:00,20.8,15.1,29.95,West,274,3.0,6.0,78,0.00,,,0.00,390.0,meteohub,2013-03-11 18:42:00,
2013-03-11 13:47:00,20.7,14.5,29.95,West,271,3.0,6.0,77,0.00,,,0.00,404.0,meteohub,2013-03-11 18:47:00,
2013-03-11 13:52:00,20.7,14.5,29.94,WNW,291,1.0,6.0,77,0.00,,,0.00,418.0,meteohub,2013-03-11 18:52:00,
2013-03-11 13:58:00,20.8,14.7,29.94,West,277,2.0,6.0,77,0.00,,,0.00,408.0,meteohub,2013-03-11 18:58:00,
2013-03-11 14:03:00,20.8,14.5,29.94,West,259,5.0,7.0,76,0.00,,,0.00,388.0,meteohub,2013-03-11 19:03:00,
2013-03-11 14:08:00,20.7,14.4,29.94,West,265,2.0,7.0,76,0.00,,,0.00,408.0,meteohub,2013-03-11 19:08:00,
2013-03-11 14:13:00,21.4,15.1,29.94,WSW,246,3.0,7.0,76,0.00,,,0.00,403.0,meteohub,2013-03-11 19:13:00,
2013-03-11 14:18:00,21.0,14.7,29.93,West,279,3.0,7.0,76,0.00,,,0.00,404.0,meteohub,2013-03-11 19:18:00,
2013-03-11 14:23:00,21.6,15.8,29.93,WSW,256,2.0,7.0,78,0.00,,,0.00,413.0,meteohub,2013-03-11 19:23:00,
2013-03-11 14:28:00,21.6,15.8,29.93,WSW,257,4.0,7.0,78,0.00,,,0.00,399.0,meteohub,2013-03-11 19:28:00,
2013-03-11 14:33:00,21.7,15.3,29.93,West,268,3.0,7.0,76,0.00,,,0.00,422.0,meteohub,2013-03-11 19:33:00,
2013-03-11 14:38:00,21.9,15.8,29.93,West,280,4.0,7.0,77,0.00,,,0.00,394.0,meteohub,2013-03-11 19:38:00,
2013-03-11 14:43:00,21.9,15.8,29.93,WNW,288,2.0,7.0,77,0.00,,,0.00,410.0,meteohub,2013-03-11 19:43:00,
2013-03-11 14:48:00,22.3,16.2,29.93,WNW,287,4.0,8.0,77,0.00,,,0.00,455.0,meteohub,2013-03-11 19:48:00,
2013-03-11 14:53:00,22.6,16.2,29.93,WSW,257,3.0,11.0,76,0.00,,,0.00,492.0,meteohub,2013-03-11 19:53:00,
2013-03-11 14:58:00,22.5,16.0,29.93,WNW,291,5.0,11.0,76,0.00,,,0.00,439.0,meteohub,2013-03-11 19:58:00,
2013-03-11 15:03:00,23.0,16.5,29.93,West,271,5.0,11.0,76,0.00,,,0.00,373.0,meteohub,2013-03-11 20:03:00,
2013-03-11 15:08:00,23.2,16.7,29.94,West,268,3.0,8.0,76,0.00,,,0.00,422.0,meteohub,2013-03-11 20:08:00,
2013-03-11 15:13:00,23.2,16.5,29.94,West,275,6.0,8.0,75,0.00,,,0.00,436.0,meteohub,2013-03-11 20:13:00,
2013-03-11 15:18:00,23.4,16.7,29.94,WNW,287,3.0,8.0,75,0.00,,,0.00,645.0,meteohub,2013-03-11 20:18:00,
2013-03-11 15:23:00,24.1,17.1,29.93,West,281,4.0,8.0,74,0.00,,,0.00,596.0,meteohub,2013-03-11 20:23:00,
2013-03-11 15:28:00,24.3,16.9,29.94,West,259,5.0,8.0,73,0.00,,,0.00,533.0,meteohub,2013-03-11 20:28:00,
2013-03-11 15:33:00,23.7,16.3,29.93,West,260,6.0,8.0,73,0.00,,,0.00,466.0,meteohub,2013-03-11 20:33:00,
2013-03-11 15:38:00,23.5,15.8,29.93,WSW,257,8.0,8.0,72,0.00,,,0.00,338.0,meteohub,2013-03-11 20:38:00,
2013-03-11 15:43:00,23.4,16.3,29.94,WSW,247,3.0,10.0,74,0.00,,,0.00,378.0,meteohub,2013-03-11 20:43:00,
2013-03-11 15:48:00,23.9,16.5,29.94,WSW,255,7.0,10.0,73,0.00,,,0.00,410.0,meteohub,2013-03-11 20:48:00,
2013-03-11 15:53:00,24.4,17.1,29.94,WNW,285,3.0,10.0,73,0.00,,,0.00,598.0,meteohub,2013-03-11 20:53:00,
2013-03-11 15:58:00,25.2,17.4,29.93,West,273,3.0,9.0,72,0.00,,,0.00,343.0,meteohub,2013-03-11 20:58:00,
2013-03-11 16:03:00,24.8,17.1,29.93,West,271,5.0,9.0,72,0.00,,,0.00,301.0,meteohub,2013-03-11 21:03:00,
2013-03-11 16:08:00,24.3,16.5,29.93,West,263,7.0,9.0,72,0.00,,,0.00,299.0,meteohub,2013-03-11 21:08:00,
2013-03-11 16:13:00,24.4,17.4,29.93,West,279,3.0,8.0,74,0.00,,,0.00,269.0,meteohub,2013-03-11 21:13:00,
2013-03-11 16:18:00,24.4,17.1,29.93,West,273,5.0,8.0,73,0.00,,,0.00,227.0,meteohub,2013-03-11 21:18:00,
2013-03-11 16:23:00,24.1,17.1,29.93,WNW,290,4.0,7.0,74,0.00,,,0.00,246.0,meteohub,2013-03-11 21:23:00,
2013-03-11 16:28:00,24.1,16.7,29.93,WNW,282,5.0,9.0,73,0.00,,,0.00,290.0,meteohub,2013-03-11 21:28:00,
2013-03-11 16:33:00,24.3,16.9,29.93,WSW,252,3.0,10.0,73,0.00,,,0.00,232.0,meteohub,2013-03-11 21:33:00,
2013-03-11 16:39:00,24.1,16.3,29.93,West,269,4.0,11.0,72,0.00,,,0.00,141.0,meteohub,2013-03-11 21:39:00,
2013-03-11 16:44:00,23.9,16.5,29.92,West,271,4.0,11.0,73,0.00,,,0.00,188.0,meteohub,2013-03-11 21:44:00,
2013-03-11 16:49:00,24.3,16.5,29.92,West,267,3.0,7.0,72,0.00,,,0.00,123.0,meteohub,2013-03-11 21:49:00,
2013-03-11 16:54:00,24.3,16.2,29.92,WNW,283,4.0,7.0,71,0.00,,,0.00,134.0,meteohub,2013-03-11 21:54:00,
2013-03-11 16:59:00,24.4,16.3,29.92,West,259,3.0,8.0,71,0.00,,,0.00,171.0,meteohub,2013-03-11 21:59:00,
2013-03-11 17:04:00,24.8,17.1,29.92,WNW,284,2.0,8.0,72,0.00,,,0.00,149.0,meteohub,2013-03-11 22:04:00,
2013-03-11 17:09:00,25.2,16.7,29.92,WSW,254,3.0,6.0,70,0.00,,,0.00,60.0,meteohub,2013-03-11 22:09:00,
2013-03-11 17:14:00,25.2,16.3,29.92,West,279,1.0,6.0,69,0.00,,,0.00,135.0,meteohub,2013-03-11 22:14:00,
2013-03-11 17:19:00,25.3,16.5,29.92,West,268,5.0,6.0,69,0.00,,,0.00,225.0,meteohub,2013-03-11 22:19:00,
2013-03-11 17:24:00,25.5,16.5,29.92,West,265,4.0,6.0,68,0.00,,,0.00,151.0,meteohub,2013-03-11 22:24:00,
2013-03-11 17:29:00,25.7,15.3,29.92,WNW,286,2.0,6.0,64,0.00,,,0.00,90.0,meteohub,2013-03-11 22:29:00,
2013-03-11 17:34:00,25.5,15.8,29.92,WNW,286,1.0,6.0,66,0.00,,,0.00,54.0,meteohub,2013-03-11 22:34:00,
2013-03-11 17:39:00,25.0,15.3,29.93,West,273,3.0,5.0,66,0.00,,,0.00,125.0,meteohub,2013-03-11 22:39:00,
2013-03-11 17:44:00,25.2,15.8,29.93,West,271,4.0,5.0,67,0.00,,,0.00,104.0,meteohub,2013-03-11 22:44:00,
2013-03-11 17:49:00,25.0,16.3,29.93,West,269,3.0,5.0,69,0.00,,,0.00,104.0,meteohub,2013-03-11 22:49:00,
2013-03-11 17:54:00,25.0,16.5,29.94,West,262,4.0,8.0,70,0.00,,,0.00,58.0,meteohub,2013-03-11 22:54:00,
2013-03-11 17:59:00,24.6,16.2,29.94,WSW,245,4.0,8.0,70,0.00,,,0.00,76.0,meteohub,2013-03-11 22:59:00,
2013-03-11 18:04:00,24.4,16.0,29.94,West,266,3.0,8.0,70,0.00,,,0.00,137.0,meteohub,2013-03-11 23:04:00,
2013-03-11 18:09:00,24.1,15.8,29.94,West,259,5.0,6.0,70,0.00,,,0.00,102.0,meteohub,2013-03-11 23:09:00,
2013-03-11 18:14:00,24.1,16.0,29.94,West,275,1.0,8.0,71,0.00,,,0.00,90.0,meteohub,2013-03-11 23:14:00,
2013-03-11 18:19:00,23.9,15.6,29.94,WSW,251,3.0,8.0,70,0.00,,,0.00,86.0,meteohub,2013-03-11 23:19:00,
2013-03-11 18:24:00,23.7,15.4,29.94,West,276,4.0,8.0,70,0.00,,,0.00,67.0,meteohub,2013-03-11 23:24:00,
2013-03-11 18:29:00,23.5,15.4,29.94,West,267,5.0,7.0,71,0.00,,,0.00,47.0,meteohub,2013-03-11 23:29:00,
2013-03-11 18:34:00,23.4,15.4,29.94,WNW,284,0.0,7.0,71,0.00,,,0.00,67.0,meteohub,2013-03-11 23:34:00,
2013-03-11 18:39:00,23.4,15.4,29.94,West,266,4.0,7.0,71,0.00,,,0.00,40.0,meteohub,2013-03-11 23:39:00,
2013-03-11 18:44:00,23.4,15.4,29.94,WNW,288,3.0,7.0,71,0.00,,,0.00,33.0,meteohub,2013-03-11 23:44:00,
2013-03-11 18:49:00,23.2,15.3,29.94,West,265,3.0,6.0,71,0.00,,,0.00,21.0,meteohub,2013-03-11 23:49:00,
2013-03-11 18:54:00,23.0,15.6,29.94,WSW,257,0.0,6.0,73,0.00,,,0.00,23.0,meteohub,2013-03-11 23:54:00,
2013-03-11 18:59:00,23.0,16.0,29.94,WNW,294,0.0,6.0,74,0.00,,,0.00,19.0,meteohub,2013-03-11 23:59:00,
2013-03-11 19:04:00,23.0,16.3,29.94,West,268,3.0,6.0,75,0.00,,,0.00,16.0,meteohub,2013-03-12 00:04:00,
2013-03-11 19:09:00,23.2,16.7,29.94,West,275,2.0,4.0,76,0.00,,,0.00,12.0,meteohub,2013-03-12 00:09:00,
2013-03-11 19:14:00,23.2,16.5,29.95,West,265,3.0,4.0,75,0.00,,,0.00,11.0,meteohub,2013-03-12 00:14:00,
2013-03-11 19:19:00,23.0,16.5,29.95,West,262,3.0,4.0,76,0.00,,,0.00,7.0,meteohub,2013-03-12 00:19:00,
2013-03-11 19:24:00,22.8,16.2,29.96,West,274,2.0,4.0,75,0.00,,,0.00,0.0,meteohub,2013-03-12 00:24:00,
2013-03-11 19:29:00,22.8,16.3,29.96,West,260,2.0,4.0,76,0.00,,,0.00,0.0,meteohub,2013-03-12 00:29:00,
2013-03-11 19:34:00,22.8,16.7,29.96,West,271,3.0,4.0,77,0.00,,,0.00,0.0,meteohub,2013-03-12 00:34:00,
2013-03-11 19:39:00,22.8,17.1,29.96,West,271,2.0,4.0,78,0.00,,,0.00,0.0,meteohub,2013-03-12 00:39:00,
2013-03-11 19:44:00,23.0,17.2,29.96,West,271,2.0,4.0,78,0.00,,,0.00,0.0,meteohub,2013-03-12 00:44:00,
2013-03-11 19:49:00,23.0,17.2,29.96,West,270,2.0,4.0,78,0.00,,,0.00,0.0,meteohub,2013-03-12 00:49:00,
2013-03-11 19:55:00,23.2,17.4,29.96,West,275,2.0,4.0,78,0.00,,,0.00,0.0,meteohub,2013-03-12 00:55:00,
2013-03-11 20:00:00,23.2,17.4,29.96,West,259,2.0,4.0,78,0.00,,,0.00,0.0,meteohub,2013-03-12 01:00:00,
2013-03-11 20:05:00,23.0,17.4,29.96,West,262,2.0,4.0,79,0.00,,,0.00,0.0,meteohub,2013-03-12 01:05:00,
2013-03-11 20:10:00,23.0,17.4,29.96,WSW,258,1.0,4.0,79,0.00,,,0.00,0.0,meteohub,2013-03-12 01:10:00,
2013-03-11 20:15:00,23.0,17.4,29.96,WSW,254,0.0,4.0,79,0.00,,,0.00,0.0,meteohub,2013-03-12 01:15:00,
2013-03-11 20:20:00,23.0,18.0,29.96,WSW,254,1.0,4.0,81,0.00,,,0.00,0.0,meteohub,2013-03-12 01:20:00,
2013-03-11 20:25:00,23.0,17.8,29.96,WSW,254,2.0,4.0,80,0.00,,,0.00,0.0,meteohub,2013-03-12 01:25:00,
2013-03-11 20:30:00,23.0,18.0,29.96,WSW,254,2.0,3.0,81,0.00,,,0.00,0.0,meteohub,2013-03-12 01:30:00,
2013-03-11 20:35:00,22.8,18.0,29.96,West,259,1.0,2.0,81,0.00,,,0.00,0.0,meteohub,2013-03-12 01:35:00,
2013-03-11 20:40:00,22.8,18.0,29.96,West,259,2.0,3.0,81,0.00,,,0.00,0.0,meteohub,2013-03-12 01:40:00,
2013-03-11 20:45:00,23.0,18.0,29.96,West,267,2.0,3.0,81,0.00,,,0.00,0.0,meteohub,2013-03-12 01:45:00,
2013-03-11 20:50:00,23.2,18.1,29.96,West,267,2.0,4.0,81,0.00,,,0.00,0.0,meteohub,2013-03-12 01:50:00,
2013-03-11 20:55:00,23.2,18.5,29.96,West,267,2.0,4.0,82,0.00,,,0.00,0.0,meteohub,2013-03-12 01:55:00,
2013-03-11 21:00:00,23.4,18.7,29.96,West,267,2.0,4.0,82,0.00,,,0.00,0.0,meteohub,2013-03-12 02:00:00,
2013-03-11 21:05:00,23.4,18.7,29.96,West,267,2.0,4.0,82,0.00,,,0.00,0.0,meteohub,2013-03-12 02:05:00,
2013-03-11 21:10:00,23.4,18.7,29.96,WSW,254,1.0,4.0,82,0.00,,,0.00,0.0,meteohub,2013-03-12 02:10:00,
2013-03-11 21:15:00,23.4,19.0,29.96,West,267,2.0,4.0,83,0.00,,,0.00,0.0,meteohub,2013-03-12 02:15:00,
2013-03-11 21:20:00,23.5,19.2,29.96,West,267,3.0,3.0,83,0.00,,,0.00,0.0,meteohub,2013-03-12 02:20:00,
2013-03-11 21:25:00,23.5,19.4,29.96,West,268,3.0,3.0,84,0.00,,,0.00,0.0,meteohub,2013-03-12 02:25:00,
2013-03-11 21:30:00,23.7,19.4,29.96,West,269,3.0,4.0,83,0.00,,,0.00,0.0,meteohub,2013-03-12 02:30:00,
2013-03-11 21:35:00,23.9,19.8,29.96,WSW,258,2.0,4.0,84,0.00,,,0.00,0.0,meteohub,2013-03-12 02:35:00,
2013-03-11 21:40:00,24.1,19.9,29.96,West,263,3.0,5.0,84,0.00,,,0.00,0.0,meteohub,2013-03-12 02:40:00,
2013-03-11 21:45:00,24.3,20.1,29.96,WSW,250,3.0,5.0,84,0.00,,,0.00,0.0,meteohub,2013-03-12 02:45:00,
2013-03-11 21:50:00,24.4,20.3,29.96,WSW,257,2.0,5.0,84,0.00,,,0.00,0.0,meteohub,2013-03-12 02:50:00,
2013-03-11 21:55:00,24.4,19.9,29.96,West,265,3.0,5.0,83,0.00,,,0.00,0.0,meteohub,2013-03-12 02:55:00,
2013-03-11 22:00:00,24.6,20.1,29.96,SW,233,2.0,5.0,83,0.00,,,0.00,0.0,meteohub,2013-03-12 03:00:00,
2013-03-11 22:05:00,24.8,20.3,29.96,WNW,286,4.0,5.0,83,0.00,,,0.00,0.0,meteohub,2013-03-12 03:05:00,
2013-03-11 22:10:00,25.0,20.3,29.97,West,268,3.0,5.0,82,0.00,,,0.00,0.0,meteohub,2013-03-12 03:10:00,
2013-03-11 22:15:00,25.0,20.3,29.97,West,261,3.0,5.0,82,0.00,,,0.00,0.0,meteohub,2013-03-12 03:15:00,
2013-03-11 22:20:00,25.2,20.1,29.97,WSW,244,2.0,4.0,81,0.00,,,0.00,0.0,meteohub,2013-03-12 03:20:00,
2013-03-11 22:25:00,25.2,20.1,29.96,West,272,3.0,4.0,81,0.00,,,0.00,0.0,meteohub,2013-03-12 03:25:00,
2013-03-11 22:30:00,25.2,19.9,29.96,West,260,3.0,4.0,80,0.00,,,0.00,0.0,meteohub,2013-03-12 03:30:00,
2013-03-11 22:35:00,25.2,19.9,29.96,West,264,4.0,5.0,80,0.00,,,0.00,0.0,meteohub,2013-03-12 03:35:00,
2013-03-11 22:40:00,25.3,19.8,29.97,West,272,2.0,5.0,79,0.00,,,0.00,0.0,meteohub,2013-03-12 03:40:00,
2013-03-11 22:45:00,25.3,20.1,29.96,WSW,257,2.0,5.0,80,0.00,,,0.00,0.0,meteohub,2013-03-12 03:45:00,
2013-03-11 22:50:00,25.3,20.1,29.96,West,266,2.0,5.0,80,0.00,,,0.00,0.0,meteohub,2013-03-12 03:50:00,
2013-03-11 22:55:00,25.5,20.5,29.96,West,263,2.0,6.0,81,0.00,,,0.00,0.0,meteohub,2013-03-12 03:55:00,
2013-03-11 23:00:00,25.5,20.5,29.96,West,269,3.0,6.0,81,0.00,,,0.00,0.0,meteohub,2013-03-12 04:00:00,
2013-03-11 23:02:00,25.5,20.8,29.96,West,268,3.0,6.0,82,0.00,,,0.00,0.0,meteohub,2013-03-12 04:02:00,
2013-03-11 23:07:00,25.5,20.8,29.96,West,271,1.0,6.0,82,0.00,,,0.00,0.0,meteohub,2013-03-12 04:07:00,
2013-03-11 23:12:00,25.9,21.2,29.96,West,261,2.0,5.0,82,0.00,,,0.00,0.0,meteohub,2013-03-12 04:12:00,
2013-03-11 23:17:00,26.1,21.4,29.97,West,262,2.0,5.0,82,0.00,,,0.00,0.0,meteohub,2013-03-12 04:17:00,
2013-03-11 23:22:00,26.1,21.4,29.96,West,263,2.0,6.0,82,0.00,,,0.00,0.0,meteohub,2013-03-12 04:22:00,
2013-03-11 23:27:00,26.1,21.4,29.96,West,263,3.0,6.0,82,0.00,,,0.00,0.0,meteohub,2013-03-12 04:27:00,
2013-03-11 23:32:00,26.2,21.7,29.96,West,265,3.0,6.0,83,0.00,,,0.00,0.0,meteohub,2013-03-12 04:32:00,
2013-03-11 23:38:00,26.2,21.7,29.96,West,261,5.0,5.0,83,0.00,,,0.00,0.0,meteohub,2013-03-12 04:38:00,
2013-03-11 23:43:00,26.4,21.9,29.96,West,272,4.0,6.0,83,0.00,,,0.00,0.0,meteohub,2013-03-12 04:43:00,
2013-03-11 23:48:00,26.6,22.1,29.96,West,271,3.0,6.0,83,0.00,,,0.00,0.0,meteohub,2013-03-12 04:48:00,
2013-03-11 23:53:00,26.8,22.3,29.96,West,263,3.0,6.0,83,0.00,,,0.00,0.0,meteohub,2013-03-12 04:53:00,
2013-03-11 23:58:00,26.8,22.6,29.96,West,267,4.0,6.0,84,0.00,,,0.00,0.0,meteohub,2013-03-12 04:58:00,